This is the latest recevied weather packets stored in our database for station/object KC5AV. If no packets are shown the sender has not sent any weather packets the latest 10 day(s).
| Time | Temp. | Humidity | Pressure | Rain* | Wind** | Luminosity | Snow |
|---|---|---|---|---|---|---|---|
| 1777663773 | 13.89° C | 92% | 1014.7 hPa | 0 mm | - | 307 W/m² | - |
| 1777663470 | 13.89° C | 93% | 1014.5 hPa | 0 mm | - | 241 W/m² | - |
| 1777663168 | 13.89° C | 94% | 1014.7 hPa | 0 mm | - | 260 W/m² | - |
| 1777662864 | 13.33° C | 94% | 1015.1 hPa | 0 mm | - | 236 W/m² | - |
| 1777662562 | 13.33° C | 94% | 1015.6 hPa | 0 mm | - | 169 W/m² | - |
| 1777662257 | 13.33° C | 94% | 1015.8 hPa | 0 mm | - | 159 W/m² | - |
| 1777661958 | 13.33° C | 95% | 1016.1 hPa | 0 mm | - | 155 W/m² | - |
| 1777661654 | 13.33° C | 95% | 1016.2 hPa | 0 mm | - | 188 W/m² | - |
| 1777661100 | 13.33° C | 96% | 1016.6 hPa | 0.51 mm | - | 172 W/m² | - |
| 1777660800 | 13.33° C | 96% | 1016.6 hPa | 0.51 mm | - | 172 W/m² | - |
| 1777660497 | 13.33° C | 96% | 1016.6 hPa | 0 mm | - | 181 W/m² | - |
| 1777659989 | 12.78° C | 96% | 1017.2 hPa | 0.51 mm | - | 110 W/m² | - |
| 1777659686 | 12.78° C | 96% | 1017.2 hPa | 0.51 mm | - | 110 W/m² | - |
| 1777659383 | 12.78° C | 95% | 1017.1 hPa | 0.51 mm | - | 106 W/m² | - |
| 1777659080 | 12.78° C | 95% | 1016.8 hPa | 0.51 mm | - | 109 W/m² | - |
| 1777658778 | 12.78° C | 95% | 1016.8 hPa | 0.51 mm | - | 111 W/m² | - |
| 1777658474 | 12.78° C | 95% | 1016.8 hPa | 0.51 mm | - | 115 W/m² | - |
| 1777657594 | 12.78° C | 95% | 1017.6 hPa | 0.51 mm | - | 119 W/m² | - |
| 1777657291 | 12.78° C | 95% | 1017.6 hPa | 0.51 mm | - | 119 W/m² | - |
| 1777656989 | 12.78° C | 95% | 1018 hPa | 0 mm | - | 130 W/m² | - |
| 1777656685 | 12.78° C | 96% | 1017.9 hPa | 0.51 mm | - | 127 W/m² | - |
| 1777656381 | 12.78° C | 97% | 1018 hPa | 0.51 mm | - | 113 W/m² | - |
| 1777656076 | 12.78° C | 97% | 1017.7 hPa | 0 mm | - | 138 W/m² | - |
| 1777655773 | 12.78° C | 97% | 1017.9 hPa | 0.51 mm | - | 136 W/m² | - |
| 1777655470 | 12.78° C | 97% | 1018.1 hPa | 0 mm | - | 129 W/m² | - |
* Rain latest hour (hover to see other rain measurements)
** Current wind speed in m/s (hover to see current wind gust speed)